Date String (YYYY-MM-DD hh:mm:ss) UTC,Instrument flags,Ambient pressure (hPa),Sample flow (lpm),Bypass flow (lpm),Sample temperature (°C),Ambient temperature (°C),ASC tube jacket temperature (°C),LED temperature (°C),Box temperature (°C),Sample RH (%),Span deviation,Mass concentration (μg/m³),Mass concentration (μg/m³),Mass concentration (μg/m³)
DateTimeUTC,F1_M11,P_M11,Q1_M11,Q2_M11,T1_M11,T2_M11,T3_M11,T4_M11,T5_M11,U1_M11,ZSPAN_M11,X0_M11,X2_M11,X1_M11
2023-05-09 03:00:00,,0828.0,5.01,0.00,29.4,27.9,00.0,37.7,31.1,14.8,0000.0,0010.81,0002.99,0001.74
2023-05-09 03:01:00,,0828.1,5.00,0.00,29.4,27.9,00.0,37.7,31.1,14.8,0000.0,0010.89,0002.97,0001.73
2023-05-09 03:02:00,,0828.1,5.00,0.00,29.4,27.9,00.0,37.7,31.1,14.8,0000.0,0010.78,0003.00,0001.74
2023-05-09 03:03:00,,0828.1,5.00,0.00,29.4,27.9,00.0,37.8,31.1,14.7,0000.0,0010.80,0002.92,0001.72
2023-05-09 03:04:00,,0828.0,4.99,0.00,29.4,28.0,00.0,37.8,31.1,14.7,0000.0,0010.03,0002.88,0001.70
2023-05-09 03:05:00,,0828.1,4.99,0.00,29.4,28.0,00.0,37.8,31.2,14.7,0000.0,0009.21,0002.83,0001.68
2023-05-09 03:06:00,,0828.1,5.01,0.00,29.5,28.0,00.0,37.8,31.2,14.7,0000.0,0008.83,0002.74,0001.67
2023-05-09 03:07:00,,0828.2,5.01,0.00,29.5,28.1,00.0,37.8,31.2,14.8,0000.0,0008.86,0002.76,0001.66
2023-05-09 03:08:00,,0828.2,5.01,0.00,29.5,28.1,00.0,37.8,31.2,15.0,0000.0,0008.79,0002.76,0001.66
2023-05-09 03:09:00,,0828.2,4.99,0.00,29.5,28.2,00.0,37.8,31.3,14.8,0000.0,0008.56,0002.74,0001.66
2023-05-09 03:10:00,,0828.2,4.99,0.00,29.5,28.2,00.0,37.9,31.3,15.0,0000.0,0008.12,0002.75,0001.66
2023-05-09 03:11:00,,0828.2,5.00,0.00,29.6,28.3,00.0,37.9,31.3,14.9,0000.0,0007.49,0002.86,0001.67
2023-05-09 03:12:00,,0828.2,5.01,0.00,29.6,28.3,00.0,37.9,31.3,15.0,0000.0,0007.19,0002.90,0001.68
2023-05-09 03:13:00,,0828.2,5.02,0.00,29.6,28.3,00.0,37.9,31.3,15.1,0000.0,0007.02,0002.91,0001.70
2023-05-09 03:14:00,,0828.2,4.99,0.00,29.6,28.3,00.0,37.9,31.4,15.0,0000.0,0006.66,0002.98,0001.72
2023-05-09 03:15:00,,0828.2,4.99,0.00,29.6,28.3,00.0,37.9,31.4,14.9,0000.0,0006.85,0003.07,0001.75
2023-05-09 03:16:00,,0828.2,5.01,0.00,29.7,28.3,00.0,38.0,31.4,14.8,0000.0,0006.91,0003.09,0001.78
2023-05-09 03:17:00,,0828.2,5.01,0.00,29.7,28.3,00.0,38.0,31.4,15.2,0000.0,0007.56,0003.14,0001.78
2023-05-09 03:18:00,,0828.3,5.00,0.00,29.7,28.3,00.0,38.0,31.4,15.6,0000.0,0007.74,0003.21,0001.80
2023-05-09 03:19:00,,0828.3,5.00,0.00,29.7,28.3,00.0,38.0,31.3,15.7,0000.0,0007.94,0003.26,0001.83
2023-05-09 03:20:00,,0828.3,4.99,0.00,29.7,28.2,00.0,38.0,31.3,15.9,0000.0,0007.92,0003.26,0001.84
2023-05-09 03:21:00,,0828.3,4.99,0.00,29.7,28.1,00.0,38.0,31.3,15.9,0000.0,0007.88,0003.25,0001.86
2023-05-09 03:22:00,,0828.3,5.01,0.00,29.7,28.1,00.0,38.0,31.3,15.9,0000.0,0008.23,0003.22,0001.89
2023-05-09 03:23:00,,0828.4,5.00,0.00,29.6,28.0,00.0,38.0,31.3,16.0,0000.0,0008.49,0003.23,0001.90
2023-05-09 03:24:00,,0828.4,5.00,0.00,29.6,27.9,00.0,38.0,31.2,16.2,0000.0,0008.71,0003.26,0001.88
2023-05-09 03:25:00,,0828.4,5.00,0.00,29.6,27.9,00.0,38.0,31.2,16.0,0000.0,0009.04,0003.28,0001.89
2023-05-09 03:26:00,,0828.4,5.00,0.00,29.6,27.8,00.0,38.0,31.2,15.9,0000.0,0009.30,0003.29,0001.89
2023-05-09 03:27:00,,0828.4,4.99,0.00,29.6,27.7,00.0,38.0,31.1,15.9,0000.0,0009.90,0003.31,0001.88
2023-05-09 03:28:00,,0828.3,4.99,0.00,29.5,27.6,00.0,38.0,31.1,16.0,0000.0,0009.85,0003.35,0001.91
2023-05-09 03:29:00,,0828.4,5.00,0.00,29.5,27.6,00.0,38.0,31.0,16.1,0000.0,0009.66,0003.33,0001.93
2023-05-09 03:30:00,,0828.4,5.00,0.00,29.5,27.5,00.0,38.0,31.0,16.2,0000.0,0009.88,0003.36,0001.93
2023-05-09 03:31:00,,0828.4,5.00,0.00,29.5,27.5,00.0,38.0,31.0,16.2,0000.0,0010.19,0003.42,0001.96
2023-05-09 03:32:00,,0828.4,5.01,0.00,29.5,27.6,00.0,38.0,31.1,16.0,0000.0,0010.50,0003.47,0001.97
2023-05-09 03:33:00,,0828.3,5.01,0.00,29.5,27.6,00.0,38.0,31.1,15.9,0000.0,0010.22,0003.48,0001.97
2023-05-09 03:34:00,,0828.3,5.00,0.00,29.4,27.6,00.0,38.0,31.0,15.8,0000.0,0010.03,0003.50,0001.97
2023-05-09 03:35:00,,0828.3,5.01,0.00,29.4,27.6,00.0,38.0,31.1,15.7,0000.0,0009.76,0003.45,0001.99
2023-05-09 03:36:00,,0828.3,5.00,0.00,29.5,27.7,00.0,38.0,31.1,15.4,0000.0,0009.45,0003.44,0001.99
2023-05-09 03:37:00,,0828.4,4.98,0.00,29.5,27.8,00.0,38.0,31.2,15.4,0000.0,0009.76,0003.42,0001.99
2023-05-09 03:38:00,,0828.3,5.01,0.00,29.5,27.8,00.0,38.0,31.2,15.4,0000.0,0009.19,0003.40,0001.99
2023-05-09 03:39:00,,0828.3,5.01,0.00,29.5,27.9,00.0,38.0,31.2,15.5,0000.0,0008.76,0003.34,0001.97
2023-05-09 03:40:00,,0828.3,5.00,0.00,29.5,28.0,00.0,38.0,31.3,15.5,0000.0,0008.77,0003.33,0001.96
2023-05-09 03:41:00,,0828.3,4.99,0.00,29.6,28.1,00.0,38.0,31.3,15.5,0000.0,0008.48,0003.29,0001.93
2023-05-09 03:42:00,,0828.4,4.99,0.00,29.6,28.2,00.0,38.0,31.3,15.4,0000.0,0008.21,0003.22,0001.90
2023-05-09 03:43:00,,0828.4,5.01,0.00,29.6,28.2,00.0,38.0,31.3,15.4,0000.0,0008.46,0003.19,0001.86
2023-05-09 03:44:00,,0828.4,5.00,0.00,29.6,28.2,00.0,38.0,31.3,15.4,0000.0,0008.80,0003.19,0001.86
2023-05-09 03:45:00,,0828.4,5.01,0.00,29.7,28.2,00.0,38.0,31.4,15.4,0000.0,0008.79,0003.16,0001.85
2023-05-09 03:46:00,,0828.4,4.99,0.00,29.7,28.2,00.0,38.0,31.4,15.5,0000.0,0008.76,0003.16,0001.84
2023-05-09 03:47:00,,0828.4,4.99,0.00,29.7,28.2,00.0,38.0,31.4,15.4,0000.0,0008.40,0003.12,0001.84
2023-05-09 03:48:00,,0828.4,5.01,0.00,29.7,28.1,00.0,38.0,31.3,15.5,0000.0,0008.78,0003.11,0001.84
2023-05-09 03:49:00,,0828.4,4.99,0.00,29.7,28.1,00.0,38.0,31.3,15.3,0000.0,0009.11,0003.10,0001.84
2023-05-09 03:50:00,,0828.4,5.00,0.00,29.7,28.1,00.0,38.1,31.3,15.1,0000.0,0009.26,0003.12,0001.84
2023-05-09 03:51:00,,0828.4,5.00,0.00,29.7,28.0,00.0,38.1,31.3,15.1,0000.0,0010.20,0003.12,0001.83
2023-05-09 03:52:00,,0828.4,5.01,0.00,29.7,28.0,00.0,38.1,31.3,15.0,0000.0,0010.54,0003.07,0001.84
2023-05-09 03:53:00,,0828.4,5.00,0.00,29.7,28.0,00.0,38.1,31.3,15.2,0000.0,0010.80,0003.10,0001.85
2023-05-09 03:54:00,,0828.4,4.97,0.00,29.7,28.0,00.0,38.1,31.3,15.1,0000.0,0010.58,0003.11,0001.86
2023-05-09 03:55:00,,0828.4,5.01,0.00,29.7,28.0,00.0,38.1,31.3,15.1,0000.0,0010.31,0003.05,0001.86
2023-05-09 03:56:00,,0828.4,5.01,0.00,29.7,27.9,00.0,38.1,31.3,15.1,0000.0,0010.96,0003.04,0001.86
2023-05-09 03:57:00,,0828.4,4.99,0.00,29.6,27.9,00.0,38.1,31.3,15.0,0000.0,0011.13,0002.98,0001.85
2023-05-09 03:58:00,,0828.4,5.00,0.00,29.6,27.9,00.0,38.1,31.2,15.0,0000.0,0011.27,0003.03,0001.83
2023-05-09 03:59:00,,0828.4,5.00,0.00,29.6,27.8,00.0,38.1,31.2,15.1,0000.0,0010.66,0003.05,0001.81
